TimeCDT,TemperatureF,Dew PointF,Humidity,Sea Level PressureIn,VisibilityMPH,Wind Direction,Wind SpeedMPH,Gust SpeedMPH,PrecipitationIn,Events,Conditions,WindDirDegrees,DateUTC
12:53 AM,53.1,46.0,77,30.10,10.0,NW,19.6,26.5,N/A,,Overcast,320,2013-05-03 05:53:00
1:53 AM,52.0,45.0,77,30.08,10.0,NW,16.1,29.9,N/A,,Overcast,310,2013-05-03 06:53:00
2:53 AM,50.0,43.0,77,30.07,10.0,NW,18.4,31.1,N/A,,Overcast,320,2013-05-03 07:53:00
3:53 AM,48.9,42.1,77,30.07,10.0,NW,21.9,31.1,N/A,,Overcast,320,2013-05-03 08:53:00
4:53 AM,46.9,41.0,80,30.07,10.0,NW,15.0,29.9,N/A,,Overcast,320,2013-05-03 09:53:00
5:53 AM,46.9,41.0,80,30.08,10.0,NW,20.7,28.8,N/A,,Overcast,320,2013-05-03 10:53:00
6:53 AM,46.9,39.9,77,30.11,10.0,NNW,16.1,31.1,N/A,,Overcast,330,2013-05-03 11:53:00
7:53 AM,46.9,39.0,74,30.11,10.0,NNW,17.3,23.0,N/A,,Overcast,340,2013-05-03 12:53:00
8:53 AM,48.0,37.9,68,30.11,10.0,NNW,19.6,29.9,N/A,,Overcast,330,2013-05-03 13:53:00
9:44 AM,51.8,39.2,62,30.11,10.0,NNW,18.4,27.6,N/A,,Scattered Clouds,330,2013-05-03 14:44:00
9:53 AM,52.0,39.0,61,30.12,10.0,NNW,23.0,29.9,N/A,,Partly Cloudy,330,2013-05-03 14:53:00
10:53 AM,55.9,41.0,57,30.12,10.0,NW,18.4,27.6,N/A,,Clear,320,2013-05-03 15:53:00
11:53 AM,60.1,39.9,47,30.11,10.0,NNW,18.4,34.5,N/A,,Clear,330,2013-05-03 16:53:00
12:53 PM,62.1,39.9,44,30.09,10.0,North,20.7,31.1,N/A,,Clear,350,2013-05-03 17:53:00
1:53 PM,64.9,39.0,39,30.07,10.0,NW,20.7,32.2,N/A,,Clear,320,2013-05-03 18:53:00
2:53 PM,66.9,37.0,33,30.05,10.0,NNW,17.3,34.5,N/A,,Clear,330,2013-05-03 19:53:00
3:53 PM,68.0,35.1,30,30.03,10.0,NW,17.3,24.2,N/A,,Clear,320,2013-05-03 20:53:00
4:53 PM,66.9,32.0,27,30.03,10.0,NNW,13.8,26.5,N/A,,Clear,330,2013-05-03 21:53:00
5:53 PM,66.0,32.0,28,30.02,10.0,NW,16.1,24.2,N/A,,Clear,320,2013-05-03 22:53:00
6:53 PM,64.0,32.0,30,30.03,10.0,NNW,16.1,21.9,N/A,,Clear,330,2013-05-03 23:53:00
7:53 PM,61.0,32.0,34,30.05,10.0,NNW,12.7,20.7,N/A,,Clear,330,2013-05-04 00:53:00
8:53 PM,55.0,35.1,47,30.06,10.0,NNW,6.9,-,N/A,,Clear,330,2013-05-04 01:53:00
9:53 PM,52.0,39.0,61,30.08,10.0,Calm,Calm,-,N/A,,Clear,0,2013-05-04 02:53:00
10:53 PM,50.0,39.0,66,30.09,10.0,NW,3.5,-,N/A,,Clear,310,2013-05-04 03:53:00
11:53 PM,48.9,39.0,69,30.09,10.0,Calm,Calm,-,N/A,,Clear,0,2013-05-04 04:53:00